Tracking 29892 objects as of 21-Nov-2024
HD Live streaming from Space Station
objects crossing your sky now

STARLINK-4323

Track STARLINK-4323 now!
10-day predictions
STARLINK-4323 is classified as:


NORAD ID: 53069
Int'l Code: 2022-077AC
Perigee: 568.0 km
Apogee: 572.9 km
Inclination: 97.7 °
Period: 95.9 minutes
Semi major axis: 6941 km
RCS: Unknown
Launch date: July 11, 2022
Source: United States (US)
Launch site: AIR FORCE WESTERN TEST RANGE (AFWTR)
Your satellite tracking list
Your tracking list is empty




NASA's NSSDC Master Catalog

Two Line Element Set (TLE):
1 53069U 22077AC  24325.97049367  .00036375  00000-0  28291-2 0  9990
2 53069  97.6540 144.5732 0003532  86.8600 273.3028 15.01161135130422
Source of the keplerian elements: AFSPC